This demonstration page uses our WeatherBlox Daily Observations layout. Learn more.

38.89511, -77.03637

Hourly Observations for September 14, 2016

Temp ( °F °C ) Dew Point ( °F °C ) Humidity (%) Winds ( mph kmh ) Pressure ( in mb ) Visibility ( mi km ) Precip ( " mm )
12:52 am 00:52 Partly Cloudy 74 23.3 65 18.3 74 74 S 10 17 30.11 1020 10 16.0934 0 0
1:52 am 01:52 Mostly Clear 73 22.8 65 18.3 76 76 SSW 9 15 30.1 1019 10 16.0934 0 0
2:52 am 02:52 Mostly Clear 72 22.2 65 18.3 79 79 SSW 7 11 30.09 1019 10 16.0934 0 0
3:52 am 03:52 Mostly Clear 72 22.2 65 18.3 79 79 SSW 8 13 30.09 1019 10 16.0934 0 0
4:52 am 04:52 Mostly Clear 70 21.1 66 18.9 87 87 SSW 7 11 30.09 1019 10 16.0934 0 0
5:52 am 05:52 Mostly Clear 70 21.1 66 18.9 87 87 SSW 5 7 30.1 1019 10 16.0934 0 0
6:52 am 06:52 Mostly Sunny 70 21.1 66 18.9 87 87 SW 5 7 30.11 1020 10 16.0934 0 0
7:52 am 07:52 Mostly Sunny 72 22.2 67 19.4 84 84 SW 5 7 30.12 1020 10 16.0934 0 0
8:52 am 08:52 Partly Cloudy 77 25 67 19.4 71 71 W 5 7 30.12 1020 10 16.0934 0 0
9:52 am 09:52 Partly Cloudy 78 25.6 68 20 71 71 ESE 3 6 30.12 1020 10 16.0934 0 0
10:52 am 10:52 Partly Cloudy 82 27.8 68 20 63 63 ESE 3 6 30.12 1020 10 16.0934 0 0
11:52 am 11:52 Mostly Sunny 89 31.7 64 17.8 43 43 NNE 12 19 30.1 1019 10 16.0934 0 0
12:52 pm 12:52 Mostly Sunny 92 33.3 57 13.9 31 31 NW 10 17 30.09 1019 10 16.0934 0 0
1:52 pm 13:52 Mostly Sunny 92 33.3 60 15.6 34 34 VRB 3 6 30.07 1018 10 16.0934 0 0
2:52 pm 14:52 Mostly Sunny 94 34.4 53 11.7 25 25 VRB 6 9 30.04 1017 10 16.0934 0 0
3:52 pm 15:52 Mostly Sunny 95 35 50 10 22 22 WNW 10 17 30.03 1017 10 16.0934 0 0
4:52 pm 16:52 Mostly Sunny 94 34.4 50 10 22 22 NNW 8 13 30.03 1017 10 16.0934 0 0
5:52 pm 17:52 Partly Cloudy 92 33.3 53 11.7 27 27 N 8 13 30.03 1017 10 16.0934 0 0
6:52 pm 18:52 Partly Cloudy 89 31.7 52 11.1 28 28 NNW 5 7 30.03 1017 10 16.0934 0 0
7:52 pm 19:52 Mostly Clear 85 29.4 63 17.2 48 48 NNE 5 7 30.03 1017 10 16.0934 0 0
8:52 pm 20:52 Mostly Clear 81 27.2 65 18.3 58 58 Calm 30.05 1018 10 16.0934 0 0
9:52 pm 21:52 Mostly Clear 81 27.2 60 15.6 49 49 Calm 30.06 1018 10 16.0934 0 0
10:52 pm 22:52 Mostly Clear 79 26.1 62 16.7 56 56 NNW 12 19 30.08 1019 10 16.0934 0 0
11:52 pm 23:52 Clear 79 26.1 65 18.3 62 62 NNE 15 24 30.11 1020 10 16.0934 0 0

Powered by AerisWeather